K0JSC-13 Weather Reports


Display with metric or nautical units.
time (UTC)temp
F
wind
direction
speed
MPH
gust
MPH
rain 1hr
in
rain 24hr
in
rain mn
in
humidity
%
barometer
mb
20260505083603 52 214 0.0 4.0 0.00 0.00 0.00 63 985.9
20260505082706 52 233 0.0 3.0 0.00 0.00 0.00 63 986.0
20260505081803 53 245 0.0 3.0 0.00 0.00 0.00 63 986.0
20260505080903 53 245 0.0 3.0 0.00 0.00 0.00 63 986.0
20260505080218 53 218 0.0 3.0 0.00 0.00 0.00 63 985.9
20260505075403 53 228 0.0 3.0 0.00 0.00 0.00 62 985.9
20260505074503 54 243 1.0 8.0 0.00 0.00 0.00 61 985.8
20260505073604 54 235 0.0 3.0 0.00 0.00 0.00 59 985.8
20260505072918 54 235 0.0 3.0 0.00 0.00 0.00 58 986.0
20260505071803 54 249 0.0 3.0 0.00 0.00 0.00 57 985.9
20260505070903 55 300 0.0 3.0 0.00 0.00 0.00 57 985.9
20260505070003 55 286 0.0 4.0 0.00 0.00 0.00 58 985.7
20260505065617 55 288 0.0 4.0 0.00 0.00 0.00 58 985.8
20260505064717 54 123 0.0 1.0 0.00 0.00 0.00 60 985.5
20260505063604 54 114 0.0 1.0 0.00 0.00 0.00 59 985.6
20260505062917 55 108 0.0 1.0 0.00 0.00 0.00 59 985.4
20260505061803 55 107 0.0 1.0 0.00 0.00 0.00 59 985.7
20260505061118 55 107 0.0 1.0 0.00 0.00 0.00 58 985.6
20260505060005 55 338 0.0 1.0 0.00 0.00 0.00 58 985.5
20260505055403 55 197 0.0 1.0 0.00 0.00 0.00 59 985.7
20260505054504 56 181 0.0 3.0 0.00 0.00 0.00 58 985.6
20260505053603 56 140 0.0 1.0 0.00 0.00 0.00 57 985.7
20260505052917 56 159 0.0 2.0 0.00 0.00 0.00 57 985.6
20260505051804 56 212 0.0 3.0 0.00 0.00 0.00 58 985.6
20260505050903 56 206 0.0 2.0 0.00 0.00 0.00 59 985.6
20260505050217 56 212 1.0 3.0 0.00 0.00 0.00 58 985.5
20260505040904 58 116 0.0 1.0 0.00 0.00 0.00 48 984.8
20260505040004 59 119 0.0 1.0 0.00 0.00 0.00 46 984.6
20260505035403 59 92 0.0 1.0 0.00 0.00 0.00 46 984.4
20260505034503 59 64 0.0 4.0 0.00 0.00 0.00 46 984.3
20260505033603 59 76 3.0 8.0 0.00 0.00 0.00 48 984.3
20260505032703 59 86 2.0 8.0 0.00 0.00 0.00 48 983.9
20260505031803 60 152 2.0 8.0 0.00 0.00 0.00 45 983.8
20260505030903 60 223 2.0 10.0 0.00 0.00 0.00 43 983.7
20260505030004 61 194 1.0 3.0 0.00 0.00 0.00 42 983.1
20260505025618 61 166 0.0 3.0 0.00 0.00 0.00 42 982.8
20260505024503 61 96 3.0 10.0 0.00 0.00 0.00 41 982.0
20260505023603 61 89 6.0 16.0 0.00 0.00 0.00 42 981.6
20260505022703 62 95 3.0 10.0 0.00 0.00 0.00 40 981.5
20260505021803 64 95 4.0 12.0 0.00 0.00 0.00 39 981.2
20260505020903 66 95 5.0 15.0 0.00 0.00 0.00 33 981.2
20260505020004 66 87 7.0 13.0 0.00 0.00 0.00 31 980.9
20260505015403 67 86 7.0 14.0 0.00 0.00 0.00 32 980.7
20260505014503 67 86 7.0 14.0 0.00 0.00 0.00 30 980.7
20260505013603 67 86 6.0 11.0 0.00 0.00 0.00 31 980.5
20260505012703 68 86 8.0 13.0 0.00 0.00 0.00 31 980.2
20260505011803 68 88 7.0 13.0 0.00 0.00 0.00 32 980.2
20260505010903 68 85 9.0 14.0 0.00 0.00 0.00 29 980.2
20260505010004 68 88 6.0 13.0 0.00 0.00 0.00 30 980.1
20260505005403 69 85 9.0 16.0 0.00 0.00 0.00 29 980.1
20260505004503 69 82 8.0 18.0 0.00 0.00 0.00 28 980.1
20260505003603 70 80 8.0 15.0 0.00 0.00 0.00 28 980.2
20260505002917 70 80 7.0 13.0 0.00 0.00 0.00 27 980.1
20260505001803 70 85 10.0 15.0 0.00 0.00 0.00 28 980.0
20260505000903 70 86 8.0 15.0 0.00 0.00 0.00 27 980.2
20260505000003 70 89 7.0 15.0 0.00 0.00 0.00 27 980.0
20260504235403 70 92 6.0 11.0 0.00 0.00 0.00 27 980.0
20260504234504 70 90 8.0 17.0 0.00 0.00 0.00 26 980.0
20260504233603 71 85 7.0 14.0 0.00 0.00 0.00 26 979.9
20260504232703 71 84 7.0 13.0 0.00 0.00 0.00 28 979.9
20260504231803 72 85 6.0 14.0 0.00 0.00 0.00 26 979.9
20260504231118 72 85 5.0 13.0 0.00 0.00 0.00 25 979.8
20260504230003 72 85 8.0 13.0 0.00 0.00 0.00 24 979.6
20260504225403 73 82 7.0 13.0 0.00 0.00 0.00 26 979.6
20260504224503 73 73 4.0 16.0 0.00 0.00 0.00 23 979.7
20260504223603 73 72 7.0 13.0 0.00 0.00 0.00 23 979.6
20260504222704 73 78 7.0 13.0 0.00 0.00 0.00 22 979.6
20260504221803 73 82 9.0 15.0 0.00 0.00 0.00 22 979.6
20260504220903 73 80 10.0 18.0 0.00 0.00 0.00 24 979.9
20260504220004 73 77 9.0 20.0 0.00 0.00 0.00 23 980.1
20260504215403 73 73 8.0 20.0 0.00 0.00 0.00 22 980.1
20260504214503 73 73 8.0 15.0 0.00 0.00 0.00 22 980.2
20260504213603 73 79 9.0 18.0 0.00 0.00 0.00 24 980.5
20260504212918 73 76 6.0 18.0 0.00 0.00 0.00 25 980.4
20260504211804 73 72 8.0 19.0 0.00 0.00 0.00 25 980.5
20260504210903 74 72 7.0 19.0 0.00 0.00 0.00 26 980.9
20260504210004 73 72 5.0 13.0 0.00 0.00 0.00 26 980.7
20260504205403 73 70 6.0 14.0 0.00 0.00 0.00 24 980.9
20260504204503 73 77 8.0 19.0 0.00 0.00 0.00 25 981.0
20260504203603 73 77 10.0 24.0 0.00 0.00 0.00 24 981.2
20260504202704 73 74 10.0 17.0 0.00 0.00 0.00 28 981.3
20260504201803 73 71 8.0 17.0 0.00 0.00 0.00 28 981.4
20260504201116 73 76 7.0 17.0 0.00 0.00 0.00 26 981.5
20260504200003 73 71 9.0 19.0 0.00 0.00 0.00 26 981.8
20260504195617 73 84 9.0 20.0 0.00 0.00 0.00 27 981.8
20260504194503 72 110 10.0 21.0 0.00 0.00 0.00 27 981.8
20260504193603 72 111 12.0 21.0 0.00 0.00 0.00 26 982.0
20260504192703 71 120 12.0 19.0 0.00 0.00 0.00 26 982.1
20260504191803 70 117 12.0 24.0 0.00 0.00 0.00 29 982.2
20260504191118 71 109 14.0 25.0 0.00 0.00 0.00 28 982.2
20260504190004 73 81 13.0 21.0 0.00 0.00 0.00 23 981.8
20260504185403 73 81 3.0 21.0 0.00 0.00 0.00 25 981.7
20260504184503 73 0 3.0 0.0 0.00 0.00 0.00 19 982.0
20260504183603 73 0 3.0 0.0 0.00 0.00 0.00 19 982.2
20260504182703 73 0 3.0 0.0 0.00 0.00 0.00 19 982.4
20260504182016 73 0 3.0 0.0 0.00 0.00 0.00 19 982.5
20260504180904 73 0 3.0 0.0 0.00 0.00 0.00 19 982.6
20260504180004 73 36 3.0 2.0 0.00 0.00 0.00 19 982.9
20260504175617 73 51 3.0 5.0 0.00 0.00 0.00 19 982.9
20260504174503 73 79 6.0 14.0 0.00 0.00 0.00 20 982.9
20260504173603 73 259 10.0 18.0 0.00 0.00 0.00 20 983.2
20260504172703 73 311 8.0 15.0 0.00 0.00 0.00 23 983.3
20260504172018 73 327 6.0 16.0 0.00 0.00 0.00 22 983.5
20260504170903 72 306 5.0 15.0 0.00 0.00 0.00 21 984.0
20260504151116 64 305 9.0 16.0 0.00 0.00 0.00 34 986.2
20260504140903 64 295 9.0 19.0 0.00 0.00 0.00 35 986.5
20260504110216 56 343 5.0 9.0 0.00 0.00 0.00 35 986.8
20260504100218 53 73 0.0 2.0 0.00 0.00 0.00 42 986.6